AAL2036 KCLT-KLGA

Flight info

Callsign AAL2036
Flight time 1h 17m
Altitude 37000
Route BARMY5 RDU NOWAE Q87 HURTS PROUD2
Aircraft A319/M-SDE3FGHIRWY/LB1

Departure

Time 2026-05-07 00:11
Airport Charlotte Douglas International Airport (KCLT)

Arrival

Time 2026-05-07 01:28
Airport LaGuardia Airport (KLGA)
Time Latitude Longitude Altitude Speed Heading
2026-05-06 23:44 35.21981 -80.94339 733 ft 0 kts 92°
2026-05-07 00:02 35.21981 -80.94353 732 ft 4 kts 92°
2026-05-07 00:02 35.21984 -80.94385 732 ft 4 kts 112°
2026-05-07 00:02 35.21988 -80.94396 732 ft 0 kts 122°
2026-05-07 00:04 35.21972 -80.94391 732 ft 5 kts 181°
2026-05-07 00:05 35.21946 -80.94393 732 ft 6 kts 181°
2026-05-07 00:05 35.21895 -80.94392 732 ft 8 kts 177°
2026-05-07 00:05 35.21833 -80.94386 732 ft 10 kts 176°
2026-05-07 00:05 35.21758 -80.94380 732 ft 13 kts 176°
2026-05-07 00:06 35.21677 -80.94336 732 ft 14 kts 104°
2026-05-07 00:06 35.21670 -80.94214 732 ft 15 kts 77°
2026-05-07 00:06 35.21730 -80.94050 732 ft 17 kts 58°
2026-05-07 00:06 35.21782 -80.93976 731 ft 18 kts 48°
2026-05-07 00:07 35.21866 -80.93859 732 ft 19 kts 48°
2026-05-07 00:07 35.21956 -80.93737 732 ft 17 kts 47°
2026-05-07 00:07 35.22073 -80.93718 733 ft 18 kts 356°
2026-05-07 00:07 35.22201 -80.93729 733 ft 19 kts 356°
2026-05-07 00:08 35.22334 -80.93740 733 ft 19 kts 356°
2026-05-07 00:08 35.22458 -80.93751 734 ft 16 kts 356°
2026-05-07 00:08 35.22486 -80.93742 734 ft 0 kts 30°
2026-05-07 00:09 35.22487 -80.93742 734 ft 1 kts 31°
2026-05-07 00:09 35.22502 -80.93709 735 ft 10 kts 75°
2026-05-07 00:09 35.22477 -80.93621 736 ft 12 kts 156°
2026-05-07 00:09 35.22449 -80.93617 736 ft 0 kts 176°
2026-05-07 00:10 35.22430 -80.93615 736 ft 10 kts 176°
2026-05-07 00:10 35.22065 -80.93585 736 ft 93 kts 176°
2026-05-07 00:10 35.21171 -80.93508 737 ft 158 kts 175°
2026-05-07 00:10 35.20030 -80.93375 1345 ft 164 kts 175°
2026-05-07 00:11 35.18907 -80.93147 2174 ft 163 kts 174°
2026-05-07 00:11 35.17842 -80.92602 2870 ft 180 kts 153°
2026-05-07 00:11 35.16869 -80.91490 3278 ft 209 kts 139°
2026-05-07 00:11 35.15922 -80.89992 3762 ft 236 kts 132°
2026-05-07 00:12 35.15211 -80.88007 4274 ft 274 kts 102°
2026-05-07 00:12 35.15414 -80.85613 5007 ft 298 kts 78°
2026-05-07 00:12 35.15945 -80.83129 5941 ft 306 kts 75°
2026-05-07 00:12 35.16530 -80.80599 6920 ft 312 kts 74°
2026-05-07 00:13 35.17132 -80.78025 7885 ft 318 kts 73°
2026-05-07 00:13 35.17739 -80.75408 8877 ft 322 kts 73°
2026-05-07 00:13 35.18351 -80.72716 9881 ft 327 kts 73°
2026-05-07 00:13 35.18956 -80.70011 10402 ft 346 kts 74°
2026-05-07 00:14 35.19612 -80.67044 10941 ft 364 kts 74°
2026-05-07 00:14 35.20275 -80.64023 11757 ft 371 kts 74°
2026-05-07 00:14 35.20947 -80.60950 12605 ft 377 kts 74°
2026-05-07 00:14 35.21626 -80.57828 13451 ft 383 kts 74°
2026-05-07 00:15 35.22318 -80.54657 14237 ft 389 kts 74°
2026-05-07 00:15 35.23019 -80.51440 14976 ft 394 kts 73°
2026-05-07 00:15 35.23722 -80.48216 15692 ft 400 kts 73°
2026-05-07 00:15 35.24445 -80.44910 16414 ft 405 kts 73°
2026-05-07 00:16 35.25188 -80.41510 17138 ft 411 kts 72°
2026-05-07 00:16 35.25931 -80.38099 17880 ft 417 kts 72°
2026-05-07 00:16 35.26674 -80.34699 18550 ft 422 kts 72°
2026-05-07 00:16 35.27434 -80.31203 19171 ft 428 kts 72°
2026-05-07 00:17 35.28201 -80.27662 19792 ft 433 kts 72°
2026-05-07 00:17 35.28974 -80.24075 20432 ft 438 kts 72°
2026-05-07 00:17 35.29757 -80.20456 21072 ft 443 kts 72°
2026-05-07 00:17 35.30546 -80.16794 21705 ft 447 kts 72°
2026-05-07 00:18 35.31339 -80.13092 22346 ft 452 kts 72°
2026-05-07 00:18 35.32138 -80.09350 22962 ft 457 kts 72°
2026-05-07 00:18 35.32954 -80.05523 23592 ft 461 kts 72°
2026-05-07 00:18 35.33759 -80.01758 24105 ft 465 kts 72°
2026-05-07 00:19 35.34585 -79.97913 24634 ft 468 kts 72°
2026-05-07 00:19 35.35415 -79.94039 25143 ft 472 kts 72°
2026-05-07 00:19 35.36246 -79.90136 25653 ft 475 kts 72°
2026-05-07 00:19 35.37080 -79.86211 26154 ft 478 kts 72°
2026-05-07 00:20 35.38056 -79.82309 26626 ft 479 kts 67°
2026-05-07 00:20 35.39180 -79.78449 26909 ft 481 kts 67°
2026-05-07 00:20 35.40306 -79.74583 26966 ft 481 kts 67°
2026-05-07 00:20 35.41429 -79.70723 26973 ft 481 kts 67°
2026-05-07 00:21 35.42549 -79.66860 26983 ft 481 kts 68°
2026-05-07 00:21 35.43671 -79.62985 27384 ft 484 kts 68°
2026-05-07 00:21 35.44799 -79.59073 27880 ft 488 kts 68°
2026-05-07 00:21 35.45933 -79.55137 28357 ft 491 kts 68°
2026-05-07 00:22 35.47073 -79.51175 28821 ft 495 kts 68°
2026-05-07 00:22 35.48223 -79.47172 29274 ft 499 kts 68°
2026-05-07 00:22 35.49382 -79.43147 29721 ft 502 kts 68°
2026-05-07 00:22 35.50549 -79.39091 30150 ft 506 kts 68°
2026-05-07 00:23 35.51722 -79.35006 30493 ft 509 kts 68°
2026-05-07 00:23 35.52901 -79.30893 30832 ft 513 kts 68°
2026-05-07 00:23 35.54091 -79.26737 31162 ft 517 kts 68°
2026-05-07 00:23 35.55285 -79.22548 31479 ft 521 kts 68°
2026-05-07 00:24 35.56486 -79.18329 31791 ft 525 kts 67°
2026-05-07 00:24 35.57771 -79.14134 32223 ft 523 kts 61°
2026-05-07 00:24 35.59464 -79.10206 32656 ft 518 kts 51°
2026-05-07 00:24 35.61567 -79.06659 33074 ft 510 kts 42°
2026-05-07 00:25 35.64018 -79.03556 33511 ft 501 kts 32°
2026-05-07 00:25 35.66637 -79.00736 33959 ft 501 kts 31°
2026-05-07 00:25 35.69264 -78.97906 34365 ft 502 kts 31°
2026-05-07 00:25 35.71882 -78.95074 34773 ft 502 kts 31°
2026-05-07 00:26 35.74500 -78.92232 35166 ft 502 kts 31°
2026-05-07 00:26 35.77120 -78.89383 35574 ft 502 kts 30°
2026-05-07 00:26 35.79733 -78.86536 35973 ft 502 kts 30°
2026-05-07 00:26 35.82342 -78.83690 36363 ft 501 kts 30°
2026-05-07 00:27 35.84955 -78.80843 36750 ft 501 kts 29°
2026-05-07 00:27 35.87568 -78.78001 36939 ft 501 kts 29°
2026-05-07 00:27 35.92790 -78.72430 36972 ft 493 kts 27°
2026-05-07 00:28 35.98021 -78.66990 36968 ft 491 kts 27°
2026-05-07 00:28 36.03244 -78.61558 36964 ft 491 kts 27°
2026-05-07 00:29 36.08455 -78.56078 36970 ft 491 kts 28°
2026-05-07 00:30 36.18842 -78.45083 36964 ft 491 kts 27°
2026-05-07 00:30 36.24032 -78.39585 36968 ft 491 kts 27°
2026-05-07 00:31 36.29226 -78.34073 36968 ft 491 kts 27°
2026-05-07 00:31 36.34421 -78.28553 36966 ft 491 kts 28°
2026-05-07 00:32 36.39587 -78.22992 36964 ft 494 kts 29°
2026-05-07 00:32 36.44625 -78.17140 36980 ft 497 kts 32°
2026-05-07 00:33 36.49592 -78.11146 36995 ft 498 kts 32°
2026-05-07 00:33 36.54579 -78.05189 37011 ft 497 kts 31°
2026-05-07 00:34 36.59594 -77.99279 37023 ft 496 kts 31°
2026-05-07 00:34 36.64615 -77.93382 37020 ft 496 kts 31°
2026-05-07 00:35 36.69622 -77.87460 36975 ft 497 kts 31°
2026-05-07 00:35 36.74621 -77.81509 36974 ft 497 kts 31°
2026-05-07 00:36 36.79622 -77.75564 36975 ft 497 kts 31°
2026-05-07 00:36 36.84627 -77.69618 36974 ft 496 kts 31°
2026-05-07 00:37 36.89628 -77.63668 36966 ft 496 kts 31°
2026-05-07 00:37 36.94624 -77.57700 36956 ft 496 kts 31°
2026-05-07 00:38 36.99613 -77.51735 36962 ft 496 kts 31°
2026-05-07 00:38 37.04596 -77.45762 36966 ft 496 kts 31°
2026-05-07 00:39 37.09570 -77.39775 36967 ft 496 kts 31°
2026-05-07 00:39 37.14540 -77.33790 36969 ft 496 kts 31°
2026-05-07 00:40 37.19515 -77.27807 36966 ft 495 kts 31°
2026-05-07 00:40 37.24483 -77.21810 36956 ft 496 kts 31°
2026-05-07 00:41 37.29448 -77.15796 36941 ft 496 kts 31°
2026-05-07 00:41 37.33581 -77.10787 36940 ft 496 kts 31°
2026-05-07 00:42 37.38542 -77.04778 36937 ft 496 kts 31°
2026-05-07 00:42 37.43504 -76.98749 36938 ft 496 kts 31°
2026-05-07 00:43 37.46076 -76.95935 36942 ft 482 kts 22°
2026-05-07 00:43 37.48842 -76.93684 36947 ft 465 kts 13°
2026-05-07 00:43 37.54544 -76.89912 36945 ft 463 kts 13°
2026-05-07 00:44 37.60258 -76.86148 36943 ft 464 kts 13°
2026-05-07 00:44 37.65968 -76.82350 36946 ft 465 kts 13°
2026-05-07 00:45 37.71680 -76.78523 36937 ft 465 kts 13°
2026-05-07 00:45 37.77401 -76.74691 36935 ft 465 kts 13°
2026-05-07 00:46 37.83120 -76.70860 36935 ft 466 kts 13°
2026-05-07 00:46 37.88850 -76.67020 36931 ft 465 kts 13°
2026-05-07 00:47 37.94603 -76.63341 36931 ft 462 kts 11°
2026-05-07 00:47 38.00411 -76.59729 36913 ft 462 kts 11°
2026-05-07 00:48 38.06179 -76.56109 36911 ft 463 kts 12°
2026-05-07 00:48 38.11943 -76.52433 36916 ft 464 kts 12°
2026-05-07 00:49 38.17705 -76.48748 36915 ft 464 kts 12°
2026-05-07 00:49 38.23470 -76.45072 36913 ft 464 kts 12°
2026-05-07 00:50 38.29215 -76.41278 36908 ft 475 kts 18°
2026-05-07 00:50 38.31934 -76.38770 36909 ft 486 kts 24°
2026-05-07 00:50 38.34614 -76.36140 36906 ft 486 kts 24°
2026-05-07 00:51 38.39973 -76.30883 36909 ft 484 kts 24°
2026-05-07 00:51 38.42603 -76.28288 36806 ft 473 kts 24°
2026-05-07 00:51 38.45179 -76.25740 36463 ft 465 kts 23°
2026-05-07 00:52 38.47744 -76.23226 35949 ft 464 kts 23°
2026-05-07 00:52 38.50340 -76.20704 34966 ft 477 kts 24°
2026-05-07 00:52 38.53034 -76.18115 34142 ft 490 kts 25°
2026-05-07 00:52 38.55778 -76.15465 33250 ft 499 kts 26°
2026-05-07 00:53 38.58547 -76.12756 32347 ft 504 kts 27°
2026-05-07 00:53 38.61340 -76.09999 31469 ft 508 kts 27°
2026-05-07 00:53 38.64143 -76.07229 30627 ft 511 kts 27°
2026-05-07 00:53 38.66982 -76.04493 29774 ft 511 kts 27°
2026-05-07 00:54 38.69847 -76.01802 28828 ft 511 kts 26°
2026-05-07 00:54 38.72731 -75.99135 27953 ft 510 kts 26°
2026-05-07 00:54 38.75561 -75.96521 27706 ft 491 kts 26°
2026-05-07 00:54 38.78273 -75.93995 27407 ft 475 kts 26°
2026-05-07 00:55 38.80919 -75.91523 26981 ft 463 kts 26°
2026-05-07 00:55 38.83471 -75.89128 26866 ft 447 kts 25°
2026-05-07 00:55 38.85966 -75.86786 26906 ft 442 kts 25°
2026-05-07 00:55 38.88447 -75.84462 26904 ft 440 kts 25°
2026-05-07 00:56 38.90923 -75.82144 26899 ft 440 kts 25°
2026-05-07 00:56 38.93396 -75.79830 26897 ft 440 kts 25°
2026-05-07 00:56 38.95867 -75.77514 26777 ft 441 kts 25°
2026-05-07 00:56 38.98339 -75.75186 26509 ft 439 kts 25°
2026-05-07 00:57 39.00798 -75.72856 26291 ft 438 kts 25°
2026-05-07 00:57 39.03244 -75.70527 26072 ft 437 kts 25°
2026-05-07 00:57 39.05679 -75.68208 25849 ft 435 kts 25°
2026-05-07 00:57 39.08113 -75.65895 25630 ft 434 kts 25°
2026-05-07 00:58 39.10540 -75.63596 25406 ft 432 kts 25°
2026-05-07 00:58 39.12954 -75.61308 25186 ft 431 kts 25°
2026-05-07 00:58 39.15366 -75.59022 24976 ft 429 kts 25°
2026-05-07 00:58 39.17767 -75.56746 24760 ft 428 kts 25°
2026-05-07 00:59 39.22536 -75.52202 24334 ft 425 kts 25°
2026-05-07 00:59 39.24921 -75.49960 24122 ft 422 kts 24°
2026-05-07 00:59 39.27323 -75.47794 23915 ft 419 kts 23°
2026-05-07 01:00 39.29726 -75.45683 23708 ft 417 kts 23°
2026-05-07 01:00 39.32132 -75.43591 23500 ft 416 kts 23°
2026-05-07 01:00 39.34524 -75.41508 23271 ft 414 kts 23°
2026-05-07 01:00 39.36904 -75.39418 23063 ft 413 kts 23°
2026-05-07 01:01 39.39271 -75.37324 22879 ft 411 kts 24°
2026-05-07 01:01 39.41624 -75.35232 22673 ft 410 kts 24°
2026-05-07 01:01 39.43966 -75.33140 22472 ft 408 kts 24°
2026-05-07 01:01 39.46295 -75.31054 22259 ft 407 kts 24°
2026-05-07 01:02 39.48620 -75.28972 22063 ft 405 kts 24°
2026-05-07 01:02 39.50932 -75.26899 21859 ft 404 kts 25°
2026-05-07 01:02 39.53238 -75.24801 21380 ft 406 kts 26°
2026-05-07 01:02 39.55512 -75.22681 21093 ft 401 kts 26°
2026-05-07 01:03 39.57764 -75.20553 20663 ft 399 kts 27°
2026-05-07 01:03 39.60000 -75.18431 20222 ft 398 kts 27°
2026-05-07 01:03 39.62227 -75.16319 19790 ft 396 kts 27°
2026-05-07 01:03 39.64455 -75.14215 19350 ft 394 kts 28°
2026-05-07 01:04 39.66669 -75.12130 18926 ft 392 kts 28°
2026-05-07 01:04 39.68881 -75.10069 18498 ft 390 kts 27°
2026-05-07 01:04 39.71118 -75.08091 18065 ft 388 kts 26°
2026-05-07 01:04 39.73366 -75.06174 17620 ft 385 kts 26°
2026-05-07 01:05 39.75606 -75.04291 17198 ft 382 kts 26°
2026-05-07 01:05 39.77830 -75.02421 16778 ft 380 kts 26°
2026-05-07 01:05 39.80036 -75.00551 16373 ft 378 kts 27°
2026-05-07 01:05 39.82229 -74.98673 15961 ft 376 kts 27°
2026-05-07 01:06 39.84410 -74.96795 15557 ft 375 kts 27°
2026-05-07 01:06 39.86575 -74.94906 15157 ft 374 kts 28°
2026-05-07 01:06 39.88715 -74.92982 14729 ft 374 kts 29°
2026-05-07 01:06 39.90843 -74.91039 14338 ft 373 kts 30°
2026-05-07 01:07 39.92848 -74.88873 13933 ft 378 kts 42°
2026-05-07 01:07 39.94609 -74.86333 13497 ft 378 kts 44°
2026-05-07 01:07 39.96364 -74.83796 13074 ft 375 kts 44°
2026-05-07 01:07 39.98113 -74.81284 12661 ft 372 kts 44°
2026-05-07 01:08 39.99852 -74.78800 12260 ft 369 kts 44°
2026-05-07 01:08 40.01576 -74.76337 11857 ft 366 kts 44°
2026-05-07 01:08 40.03288 -74.73895 11440 ft 363 kts 44°
2026-05-07 01:08 40.04987 -74.71469 11046 ft 360 kts 44°
2026-05-07 01:09 40.06668 -74.69061 10653 ft 358 kts 44°
2026-05-07 01:09 40.08322 -74.66681 10464 ft 348 kts 44°
2026-05-07 01:09 40.09921 -74.64373 10333 ft 337 kts 44°
2026-05-07 01:09 40.11479 -74.62123 10111 ft 332 kts 44°
2026-05-07 01:10 40.13026 -74.59895 10002 ft 330 kts 43°
2026-05-07 01:10 40.14572 -74.57671 10016 ft 331 kts 44°
2026-05-07 01:10 40.16142 -74.55411 10018 ft 331 kts 44°
2026-05-07 01:10 40.17687 -74.53182 10018 ft 331 kts 44°
2026-05-07 01:11 40.19235 -74.50950 10013 ft 331 kts 44°
2026-05-07 01:11 40.20799 -74.48731 10017 ft 331 kts 42°
2026-05-07 01:11 40.22418 -74.46597 10016 ft 331 kts 40°
2026-05-07 01:11 40.24075 -74.44515 9862 ft 328 kts 39°
2026-05-07 01:12 40.25711 -74.42495 9498 ft 327 kts 38°
2026-05-07 01:12 40.27363 -74.40460 9117 ft 325 kts 38°
2026-05-07 01:12 40.29021 -74.38402 9015 ft 324 kts 39°
2026-05-07 01:12 40.30653 -74.36364 9026 ft 325 kts 39°
2026-05-07 01:13 40.32285 -74.34313 9027 ft 326 kts 39°
2026-05-07 01:13 40.33918 -74.32249 9027 ft 326 kts 39°
2026-05-07 01:13 40.35548 -74.30189 9031 ft 325 kts 39°
2026-05-07 01:13 40.37179 -74.28125 9027 ft 326 kts 39°
2026-05-07 01:14 40.38810 -74.26052 9025 ft 326 kts 39°
2026-05-07 01:14 40.40437 -74.23975 9030 ft 326 kts 39°
2026-05-07 01:14 40.42057 -74.21908 8719 ft 324 kts 39°
2026-05-07 01:14 40.43647 -74.19881 8328 ft 322 kts 39°
2026-05-07 01:15 40.45267 -74.17813 7949 ft 319 kts 39°
2026-05-07 01:15 40.46855 -74.15784 7566 ft 317 kts 40°
2026-05-07 01:15 40.48430 -74.13773 7195 ft 315 kts 39°
2026-05-07 01:15 40.49994 -74.11777 6838 ft 312 kts 39°
2026-05-07 01:16 40.51552 -74.09814 6463 ft 308 kts 37°
2026-05-07 01:16 40.53272 -74.08204 6065 ft 301 kts 27°
2026-05-07 01:16 40.55031 -74.06729 5662 ft 299 kts 27°
2026-05-07 01:16 40.56774 -74.05255 5282 ft 297 kts 28°
2026-05-07 01:17 40.57907 -74.04289 5168 ft 288 kts 28°
2026-05-07 01:17 40.60056 -74.02503 4999 ft 264 kts 20°
2026-05-07 01:17 40.61198 -74.02031 4866 ft 250 kts
2026-05-07 01:17 40.62906 -74.01755 4597 ft 245 kts 358°
2026-05-07 01:18 40.64598 -74.01564 4297 ft 243 kts 358°
2026-05-07 01:18 40.66280 -74.01388 4057 ft 242 kts 357°
2026-05-07 01:18 40.67955 -74.01215 4012 ft 241 kts 357°
2026-05-07 01:18 40.69629 -74.01043 4026 ft 242 kts 357°
2026-05-07 01:19 40.71308 -74.00870 4026 ft 242 kts 357°
2026-05-07 01:19 40.72982 -74.00696 4026 ft 241 kts 357°
2026-05-07 01:19 40.74657 -74.00501 4026 ft 243 kts
2026-05-07 01:19 40.76271 -73.99713 4037 ft 254 kts 24°
2026-05-07 01:20 40.77782 -73.98489 4031 ft 255 kts 27°
2026-05-07 01:20 40.79269 -73.97234 4006 ft 254 kts 27°
2026-05-07 01:20 40.80756 -73.95980 4006 ft 253 kts 27°
2026-05-07 01:20 40.82243 -73.94733 4010 ft 253 kts 27°
2026-05-07 01:21 40.83726 -73.93482 3999 ft 254 kts 27°
2026-05-07 01:21 40.85214 -73.92236 4014 ft 252 kts 27°
2026-05-07 01:21 40.86677 -73.91010 3901 ft 245 kts 27°
2026-05-07 01:21 40.88104 -73.89811 3712 ft 241 kts 27°
2026-05-07 01:22 40.89515 -73.88625 3473 ft 239 kts 27°
2026-05-07 01:22 40.90912 -73.87440 3237 ft 238 kts 27°
2026-05-07 01:22 40.92298 -73.86261 3042 ft 236 kts 27°
2026-05-07 01:22 40.93673 -73.85096 2761 ft 235 kts 27°
2026-05-07 01:23 40.94967 -73.83773 2457 ft 240 kts 47°
2026-05-07 01:23 40.95651 -73.81774 2198 ft 242 kts 79°
2026-05-07 01:23 40.95806 -73.79568 2034 ft 238 kts 86°
2026-05-07 01:23 40.95681 -73.77438 1985 ft 228 kts 112°
2026-05-07 01:24 40.94805 -73.75843 2011 ft 208 kts 150°
2026-05-07 01:24 40.93464 -73.75266 2003 ft 207 kts 186°
2026-05-07 01:24 40.92115 -73.75800 2006 ft 203 kts 216°
2026-05-07 01:24 40.90925 -73.76789 2001 ft 202 kts 217°
2026-05-07 01:25 40.89743 -73.77782 2007 ft 201 kts 218°
2026-05-07 01:25 40.88565 -73.78764 2008 ft 200 kts 217°
2026-05-07 01:25 40.87381 -73.79747 1969 ft 201 kts 217°
2026-05-07 01:25 40.86218 -73.80710 1774 ft 191 kts 218°
2026-05-07 01:26 40.85128 -73.81611 1557 ft 178 kts 217°
2026-05-07 01:26 40.84120 -73.82445 1313 ft 165 kts 217°
2026-05-07 01:26 40.83182 -73.83223 1094 ft 153 kts 216°
2026-05-07 01:26 40.82331 -73.83927 915 ft 135 kts 215°
2026-05-07 01:27 40.81571 -73.84556 742 ft 125 kts 215°
2026-05-07 01:27 40.80855 -73.85151 596 ft 120 kts 212°
2026-05-07 01:27 40.80158 -73.85748 425 ft 118 kts 212°
2026-05-07 01:27 40.79458 -73.86327 273 ft 119 kts 209°
2026-05-07 01:28 40.78747 -73.86903 116 ft 120 kts 210°
2026-05-07 01:28 40.78077 -73.87455 17 ft 95 kts 212°
2026-05-07 01:28 40.77757 -73.87719 21 ft 27 kts 212°
2026-05-07 01:28 40.77660 -73.87744 22 ft 13 kts 127°
2026-05-07 01:29 40.77627 -73.87678 20 ft 7 kts 124°
2026-05-07 01:29 40.77590 -73.87607 20 ft 11 kts 129°
2026-05-07 01:29 40.77520 -73.87543 18 ft 13 kts 142°
2026-05-07 01:29 40.77475 -73.87426 18 ft 15 kts 101°
2026-05-07 01:30 40.77446 -73.87331 18 ft 11 kts 117°
2026-05-07 01:30 40.77432 -73.87277 18 ft 0 kts 103°
2026-05-07 01:30 40.77435 -73.87253 18 ft 7 kts 65°
2026-05-07 01:30 40.77454 -73.87236 19 ft 0 kts 21°
2026-05-07 01:31 40.77470 -73.87227 18 ft 5 kts 20°
2026-05-07 01:31 40.77485 -73.87220 18 ft 0 kts 20°